| time (UTC) | temp F | wind direction | speed MPH | gust MPH | rain 1hr in | rain 24hr in | rain mn in | humidity % | barometer mb |
| 20260905064436 | 84 | 161 | 4.0 | 4.0 | 0.00 | 0.00 | 0.00 | 64 | 1015.0 |
| 20260905063437 | 84 | 185 | 2.0 | 3.0 | 0.00 | 0.00 | 0.00 | 64 | 1015.0 |
| 20260905062437 | 84 | 175 | 2.0 | 2.0 | 0.00 | 0.00 | 0.00 | 64 | 1015.0 |
| 20260905061437 | 84 | 165 | 3.0 | 3.0 | 0.00 | 0.00 | 0.00 | 63 | 1015.1 |
| 20260905060437 | 84 | 183 | 1.0 | 1.0 | 0.00 | 0.00 | 0.00 | 63 | 1014.9 |
| 20260905055436 | 84 | 199 | 1.0 | 2.0 | 0.00 | 0.00 | 0.00 | 62 | 1015.0 |
| 20260905054436 | 85 | 183 | 2.0 | 3.0 | 0.00 | 0.00 | 0.00 | 61 | 1015.0 |
| 20260905053436 | 84 | 201 | 2.0 | 3.0 | 0.00 | 0.00 | 0.00 | 61 | 1014.9 |
| 20260905052436 | 84 | 197 | 2.0 | 2.0 | 0.00 | 0.00 | 0.00 | 61 | 1014.9 |
| 20260905051436 | 84 | 181 | 2.0 | 2.0 | 0.00 | 0.00 | 0.00 | 61 | 1014.7 |
| 20260905050436 | 84 | 178 | 1.0 | 1.0 | 0.00 | 0.00 | 0.00 | 61 | 1014.6 |
| 20260905045436 | 84 | 179 | 1.0 | 1.0 | 0.00 | 0.00 | 0.00 | 61 | 1014.8 |
| 20260905044436 | 84 | 174 | 1.0 | 1.0 | 0.00 | 0.00 | 0.00 | 61 | 1015.0 |
| 20260905043436 | 84 | 179 | 2.0 | 2.0 | 0.00 | 0.00 | 0.00 | 61 | 1014.7 |
| 20260905042436 | 85 | 181 | 1.0 | 1.0 | 0.00 | 0.00 | 0.00 | 60 | 1014.6 |
| 20260905041436 | 85 | 190 | 1.0 | 1.0 | 0.00 | 0.00 | 0.00 | 59 | 1014.7 |
| 20260905040436 | 86 | 135 | 2.0 | 2.0 | 0.00 | 0.00 | 0.00 | 59 | 1014.8 |
| 20260905035435 | 86 | 172 | 2.0 | 2.0 | 0.00 | 0.00 | 0.00 | 59 | 1014.7 |
| 20260905034436 | 86 | 129 | 2.0 | 3.0 | 0.00 | 0.00 | 0.00 | 59 | 1014.6 |
| 20260905033437 | 86 | 179 | 2.0 | 2.0 | 0.00 | 0.00 | 0.00 | 61 | 1014.7 |
| 20260905032456 | 86 | 181 | 4.0 | 4.0 | 0.00 | 0.00 | 0.00 | 60 | 1014.8 |
| 20260905031436 | 87 | 148 | 4.0 | 4.0 | 0.00 | 0.00 | 0.00 | 58 | 1014.9 |
| 20260905030436 | 87 | 155 | 2.0 | 2.0 | 0.00 | 0.00 | 0.00 | 58 | 1014.6 |
| 20260905025436 | 87 | 165 | 2.0 | 2.0 | 0.00 | 0.00 | 0.00 | 57 | 1014.5 |
| 20260905024436 | 87 | 165 | 3.0 | 4.0 | 0.00 | 0.00 | 0.00 | 56 | 1014.5 |
| 20260905023437 | 88 | 160 | 4.0 | 4.0 | 0.00 | 0.00 | 0.00 | 56 | 1014.4 |
| 20260905022437 | 88 | 176 | 3.0 | 3.0 | 0.00 | 0.00 | 0.00 | 55 | 1014.1 |
| 20260905021436 | 88 | 133 | 3.0 | 3.0 | 0.00 | 0.00 | 0.00 | 55 | 1014.0 |
| 20260905020436 | 88 | 168 | 2.0 | 2.0 | 0.00 | 0.00 | 0.00 | 55 | 1013.7 |
| 20260905015457 | 89 | 134 | 4.0 | 4.0 | 0.00 | 0.00 | 0.00 | 55 | 1013.8 |
| 20260905014436 | 89 | 128 | 4.0 | 4.0 | 0.00 | 0.00 | 0.00 | 53 | 1013.7 |
| 20260905013517 | 90 | 159 | 4.0 | 4.0 | 0.00 | 0.00 | 0.00 | 53 | 1013.4 |
| 20260905012436 | 90 | 146 | 4.0 | 4.0 | 0.00 | 0.00 | 0.00 | 54 | 1013.4 |
| 20260905011436 | 90 | 138 | 4.0 | 4.0 | 0.00 | 0.00 | 0.00 | 53 | 1013.6 |
| 20260905010436 | 91 | 122 | 3.0 | 3.0 | 0.00 | 0.00 | 0.00 | 52 | 1013.4 |
| 20260905005436 | 91 | 113 | 3.0 | 3.0 | 0.00 | 0.00 | 0.00 | 50 | 1013.2 |
| 20260905004456 | 92 | 140 | 4.0 | 4.0 | 0.00 | 0.00 | 0.00 | 49 | 1013.2 |
| 20260905003456 | 93 | 146 | 6.0 | 8.0 | 0.00 | 0.00 | 0.00 | 47 | 1013.1 |
| 20260905002436 | 94 | 132 | 4.0 | 4.0 | 0.00 | 0.00 | 0.00 | 43 | 1013.0 |
| 20260905001436 | 95 | 116 | 4.0 | 4.0 | 0.00 | 0.00 | 0.00 | 39 | 1012.9 |
| 20260905000456 | 95 | 124 | 5.0 | 7.0 | 0.00 | 0.00 | 0.00 | 39 | 1012.9 |
| 20260904235436 | 96 | 173 | 3.0 | 3.0 | 0.00 | 0.00 | 0.00 | 38 | 1012.9 |
| 20260904234436 | 96 | 199 | 7.0 | 8.0 | 0.00 | 0.00 | 0.00 | 37 | 1012.9 |
| 20260904233436 | 96 | 145 | 8.0 | 8.0 | 0.00 | 0.00 | 0.00 | 38 | 1012.7 |
| 20260904232436 | 97 | 144 | 7.0 | 9.0 | 0.00 | 0.00 | 0.00 | 38 | 1012.7 |
| 20260904231437 | 96 | 186 | 5.0 | 7.0 | 0.00 | 0.00 | 0.00 | 38 | 1012.6 |
| 20260904230436 | 97 | 141 | 9.0 | 11.0 | 0.00 | 0.00 | 0.00 | 38 | 1012.7 |
| 20260904225436 | 97 | 167 | 4.0 | 4.0 | 0.00 | 0.00 | 0.00 | 39 | 1012.9 |
| 20260904224436 | 96 | 150 | 6.0 | 8.0 | 0.00 | 0.00 | 0.00 | 40 | 1012.9 |
| 20260904223457 | 96 | 96 | 3.0 | 4.0 | 0.00 | 0.00 | 0.00 | 40 | 1013.0 |
| 20260904222437 | 97 | 189 | 4.0 | 4.0 | 0.00 | 0.00 | 0.00 | 39 | 1013.0 |
| 20260904221437 | 98 | 225 | 7.0 | 9.0 | 0.00 | 0.00 | 0.00 | 39 | 1012.9 |
| 20260904220437 | 95 | 148 | 5.0 | 6.0 | 0.00 | 0.00 | 0.00 | 43 | 1013.1 |
| 20260904215437 | 96 | 139 | 7.0 | 9.0 | 0.00 | 0.00 | 0.00 | 41 | 1013.1 |
| 20260904214437 | 95 | 150 | 6.0 | 7.0 | 0.00 | 0.00 | 0.00 | 43 | 1013.2 |
| 20260904213437 | 96 | 145 | 14.0 | 15.0 | 0.00 | 0.00 | 0.00 | 41 | 1013.1 |
| 20260904212437 | 97 | 161 | 10.0 | 14.0 | 0.00 | 0.00 | 0.00 | 41 | 1013.3 |
| 20260904211457 | 95 | 213 | 5.0 | 6.0 | 0.00 | 0.00 | 0.00 | 42 | 1013.5 |
| 20260904210437 | 95 | 119 | 6.0 | 8.0 | 0.00 | 0.00 | 0.00 | 42 | 1013.7 |
| 20260904205457 | 96 | 110 | 9.0 | 10.0 | 0.00 | 0.00 | 0.00 | 40 | 1013.7 |
| 20260904204437 | 97 | 134 | 7.0 | 9.0 | 0.00 | 0.00 | 0.00 | 40 | 1013.9 |
| 20260904203437 | 96 | 160 | 6.0 | 9.0 | 0.00 | 0.00 | 0.00 | 40 | 1013.9 |
| 20260904202436 | 95 | 158 | 9.0 | 11.0 | 0.00 | 0.00 | 0.00 | 41 | 1013.9 |
| 20260904201457 | 96 | 157 | 9.0 | 13.0 | 0.00 | 0.00 | 0.00 | 40 | 1014.2 |
| 20260904200437 | 96 | 161 | 15.0 | 18.0 | 0.00 | 0.00 | 0.00 | 40 | 1014.4 |
| 20260904195456 | 97 | 87 | 7.0 | 9.0 | 0.00 | 0.00 | 0.00 | 38 | 1014.2 |
| 20260904194437 | 98 | 152 | 6.0 | 13.0 | 0.00 | 0.00 | 0.00 | 40 | 1014.3 |
| 20260904193457 | 97 | 134 | 7.0 | 8.0 | 0.00 | 0.00 | 0.00 | 40 | 1014.6 |
| 20260904192437 | 96 | 164 | 6.0 | 7.0 | 0.00 | 0.00 | 0.00 | 41 | 1014.7 |
| 20260904191436 | 96 | 200 | 10.0 | 11.0 | 0.00 | 0.00 | 0.00 | 41 | 1014.7 |
| 20260904190437 | 96 | 192 | 2.0 | 3.0 | 0.00 | 0.00 | 0.00 | 41 | 1014.8 |
| 20260904185436 | 96 | 162 | 3.0 | 3.0 | 0.00 | 0.00 | 0.00 | 41 | 1015.1 |
| 20260904184436 | 94 | 179 | 7.0 | 9.0 | 0.00 | 0.00 | 0.00 | 45 | 1015.2 |
| 20260904183437 | 95 | 158 | 6.0 | 10.0 | 0.00 | 0.00 | 0.00 | 43 | 1015.3 |
| 20260904182438 | 91 | 154 | 4.0 | 6.0 | 0.00 | 0.00 | 0.00 | 51 | 1015.6 |
| 20260904181437 | 92 | 97 | 4.0 | 7.0 | 0.00 | 0.00 | 0.00 | 51 | 1015.6 |
| 20260904180437 | 94 | 141 | 4.0 | 4.0 | 0.00 | 0.00 | 0.00 | 49 | 1015.9 |
| 20260904175437 | 93 | 95 | 9.0 | 10.0 | 0.00 | 0.00 | 0.00 | 50 | 1015.8 |
| 20260904174437 | 93 | 157 | 4.0 | 7.0 | 0.00 | 0.00 | 0.00 | 47 | 1015.9 |
| 20260904173457 | 94 | 178 | 4.0 | 7.0 | 0.00 | 0.00 | 0.00 | 46 | 1016.0 |
| 20260904172437 | 93 | 219 | 4.0 | 6.0 | 0.00 | 0.00 | 0.00 | 48 | 1016.4 |
| 20260904171437 | 93 | 154 | 5.0 | 6.0 | 0.00 | 0.00 | 0.00 | 47 | 1016.3 |
| 20260904170437 | 93 | 186 | 3.0 | 4.0 | 0.00 | 0.00 | 0.00 | 49 | 1016.7 |
| 20260904165457 | 92 | 187 | 6.0 | 7.0 | 0.00 | 0.00 | 0.00 | 50 | 1016.5 |
| 20260904164457 | 92 | 116 | 4.0 | 4.0 | 0.00 | 0.00 | 0.00 | 52 | 1016.6 |
| 20260904163437 | 91 | 154 | 6.0 | 9.0 | 0.00 | 0.00 | 0.00 | 54 | 1016.5 |
| 20260904162437 | 91 | 170 | 4.0 | 7.0 | 0.00 | 0.00 | 0.00 | 54 | 1016.7 |
| 20260904161438 | 91 | 119 | 4.0 | 6.0 | 0.00 | 0.00 | 0.00 | 54 | 1016.5 |
| 20260904160437 | 89 | 144 | 1.0 | 1.0 | 0.00 | 0.00 | 0.00 | 60 | 1016.5 |
| 20260904155437 | 89 | 156 | 6.0 | 8.0 | 0.00 | 0.00 | 0.00 | 58 | 1016.7 |
| 20260904154437 | 88 | 160 | 2.0 | 2.0 | 0.00 | 0.00 | 0.00 | 60 | 1016.8 |
| 20260904153437 | 88 | 179 | 3.0 | 4.0 | 0.00 | 0.00 | 0.00 | 64 | 1016.5 |
| 20260904152436 | 87 | 86 | 5.0 | 7.0 | 0.00 | 0.00 | 0.00 | 66 | 1016.5 |
| 20260904151437 | 87 | 135 | 4.0 | 7.0 | 0.00 | 0.00 | 0.00 | 67 | 1016.4 |
| 20260904150437 | 86 | 169 | 3.0 | 6.0 | 0.00 | 0.00 | 0.00 | 71 | 1016.4 |
| 20260904145436 | 85 | 186 | 3.0 | 6.0 | 0.00 | 0.00 | 0.00 | 74 | 1016.4 |
| 20260904144436 | 84 | 187 | 6.0 | 7.0 | 0.00 | 0.00 | 0.00 | 76 | 1016.4 |
| 20260904143457 | 82 | 215 | 3.0 | 4.0 | 0.00 | 0.00 | 0.00 | 80 | 1016.6 |
| 20260904142457 | 82 | 235 | 5.0 | 6.0 | 0.00 | 0.00 | 0.00 | 81 | 1016.5 |
| 20260904141457 | 81 | 172 | 6.0 | 6.0 | 0.00 | 0.00 | 0.00 | 83 | 1016.6 |
| 20260904140437 | 81 | 165 | 3.0 | 4.0 | 0.00 | 0.00 | 0.00 | 84 | 1016.5 |
| 20260904135457 | 80 | 175 | 4.0 | 6.0 | 0.00 | 0.00 | 0.00 | 86 | 1016.3 |
| 20260904134437 | 79 | 161 | 5.0 | 7.0 | 0.00 | 0.00 | 0.00 | 88 | 1016.2 |
| 20260904133437 | 79 | 140 | 5.0 | 6.0 | 0.00 | 0.00 | 0.00 | 90 | 1016.3 |
| 20260904132438 | 78 | 111 | 6.0 | 7.0 | 0.00 | 0.00 | 0.00 | 90 | 1016.0 |
| 20260904131437 | 78 | 190 | 4.0 | 4.0 | 0.00 | 0.00 | 0.00 | 91 | 1015.7 |
| 20260904130437 | 78 | 131 | 4.0 | 4.0 | 0.00 | 0.00 | 0.00 | 91 | 1016.0 |
| 20260904125436 | 77 | 169 | 2.0 | 2.0 | 0.00 | 0.00 | 0.00 | 92 | 1015.8 |
| 20260904124437 | 77 | 126 | 3.0 | 3.0 | 0.00 | 0.00 | 0.00 | 92 | 1015.7 |
| 20260904123437 | 77 | 154 | 4.0 | 4.0 | 0.00 | 0.00 | 0.00 | 92 | 1015.7 |
| 20260904122517 | 77 | 127 | 8.0 | 9.0 | 0.00 | 0.00 | 0.00 | 92 | 1015.5 |
| 20260904121437 | 77 | 167 | 4.0 | 6.0 | 0.00 | 0.00 | 0.00 | 91 | 1015.6 |
| 20260904120437 | 76 | 169 | 3.0 | 4.0 | 0.00 | 0.00 | 0.00 | 92 | 1015.6 |
| 20260904115457 | 76 | 94 | 6.0 | 7.0 | 0.00 | 0.00 | 0.00 | 92 | 1015.6 |
| 20260904114456 | 76 | 186 | 4.0 | 4.0 | 0.00 | 0.00 | 0.00 | 91 | 1015.5 |
| 20260904113457 | 76 | 153 | 3.0 | 3.0 | 0.00 | 0.00 | 0.00 | 91 | 1015.4 |
| 20260904112437 | 76 | 118 | 5.0 | 5.0 | 0.00 | 0.00 | 0.00 | 91 | 1015.4 |
| 20260904111437 | 76 | 142 | 3.0 | 3.0 | 0.00 | 0.00 | 0.00 | 90 | 1015.3 |
| 20260904110437 | 76 | 169 | 3.0 | 3.0 | 0.00 | 0.00 | 0.00 | 90 | 1015.3 |
| 20260904105437 | 76 | 163 | 2.0 | 2.0 | 0.00 | 0.00 | 0.00 | 89 | 1015.4 |
| 20260904104437 | 76 | 163 | 2.0 | 2.0 | 0.00 | 0.00 | 0.00 | 88 | 1015.2 |
| 20260904103437 | 77 | 125 | 3.0 | 3.0 | 0.00 | 0.00 | 0.00 | 88 | 1015.0 |
| 20260904102437 | 77 | 156 | 2.0 | 3.0 | 0.00 | 0.00 | 0.00 | 87 | 1015.1 |
| 20260904101437 | 77 | 142 | 3.0 | 3.0 | 0.00 | 0.00 | 0.00 | 86 | 1015.0 |
| 20260904100457 | 76 | 170 | 4.0 | 4.0 | 0.00 | 0.00 | 0.00 | 86 | 1015.1 |
| 20260904095437 | 76 | 146 | 2.0 | 2.0 | 0.00 | 0.00 | 0.00 | 86 | 1015.0 |
| 20260904094437 | 76 | 154 | 3.0 | 3.0 | 0.00 | 0.00 | 0.00 | 85 | 1014.8 |
| 20260904093517 | 76 | 153 | 3.0 | 3.0 | 0.00 | 0.00 | 0.00 | 85 | 1014.9 |
| 20260904092436 | 77 | 173 | 1.0 | 1.0 | 0.00 | 0.01 | 0.00 | 84 | 1015.1 |
| 20260904091436 | 77 | 164 | 2.0 | 2.0 | 0.00 | 0.01 | 0.00 | 83 | 1015.1 |
| 20260904090436 | 77 | 187 | 1.0 | 2.0 | 0.00 | 0.03 | 0.00 | 83 | 1014.9 |
| 20260904085456 | 77 | 160 | 1.0 | 2.0 | 0.00 | 0.03 | 0.00 | 82 | 1014.8 |
| 20260904084436 | 77 | 157 | 2.0 | 2.0 | 0.00 | 0.03 | 0.00 | 82 | 1014.8 |
| 20260904083437 | 77 | 138 | 2.0 | 3.0 | 0.00 | 0.03 | 0.00 | 81 | 1014.8 |
| 20260904082436 | 78 | 170 | 1.0 | 2.0 | 0.00 | 0.03 | 0.00 | 80 | 1014.7 |
| 20260904081437 | 78 | 158 | 4.0 | 4.0 | 0.00 | 0.03 | 0.00 | 80 | 1014.8 |
| 20260904080456 | 78 | 119 | 3.0 | 3.0 | 0.00 | 0.03 | 0.00 | 79 | 1014.7 |
| 20260904075437 | 78 | 135 | 5.0 | 6.0 | 0.00 | 0.03 | 0.00 | 78 | 1014.7 |
| 20260904074437 | 78 | 178 | 3.0 | 3.0 | 0.00 | 0.03 | 0.00 | 78 | 1014.8 |
| 20260904073437 | 78 | 154 | 3.0 | 3.0 | 0.00 | 0.03 | 0.00 | 77 | 1014.9 |
| 20260904072436 | 78 | 162 | 2.0 | 2.0 | 0.00 | 0.03 | 0.00 | 76 | 1014.7 |
| 20260904071436 | 78 | 184 | 5.0 | 6.0 | 0.00 | 0.03 | 0.00 | 76 | 1014.8 |
| 20260904070436 | 79 | 168 | 2.0 | 3.0 | 0.00 | 0.03 | 0.00 | 75 | 1014.9 |
| 20260904065436 | 79 | 144 | 4.0 | 4.0 | 0.00 | 0.03 | 0.00 | 75 | 1015.0 |